Location: Canyon Rim
(40.8777°N, 111.8641°W)
Time: 08:19:07
(UTC+00:00)

X-37B - Pass Details

Date: 22 April 2021
Orbit: 386 x 389 km, 45.0° (Epoch: 08 May)

Event Time Altitude Azimuth Distance (km) Brightness Sun altitude
Exits shadow 11:51:03 - 292° (WNW) 1,799 3.5 -9.0°
Reaches altitude 10° 11:52:01 10° 296° (WNW) 1,415 3.1 -8.9°
Maximum altitude 11:55:05 43° 10° (N) 555 1.7 -8.3°
Drops below altitude 10° 11:58:08 10° 84° (E) 1,411 4.8 -7.8°
Sets 12:00:16 0° 91° (E) 2,263 5.8 -7.4°
